Location: Rottenacker
(48.2350°N, 9.6886°E)
Time: 18:00:08
(UTC+02:00)

OTV 5 (USA 277) - Pass Details

Date: 25 April 2018
Orbit: 308 x 326 km, 54.5° (Epoch: 06 May)

Event Time Altitude Azimuth Distance (km) Brightness Sun altitude
Rises 21:48:30 0° 287° (WNW) 2,065 ? -12.7°
Reaches altitude 10° 21:50:46 10° 305° (NW) 1,230 ? -13.0°
Maximum altitude 21:52:55 21° 358° (N) 799 ? -13.3°
Drops below altitude 10° 21:55:05 10° 50° (NE) 1,223 ? -13.6°
Enters shadow 21:55:44 - 58° (ENE) 1,449 ? -13.7°
